Domov               UVHVVR             MKGP            O straneh              
ZDRAVSTVENO VARSTVO RASTLIN
  MREŽA AGROMET. POSTAJ
 ► PROGNOSTIČNA OBVESTILA
AGROMETEOROLOŠKI PODATKI -
ARSO
OBVLADOVANJE TVEGANJ ZARADI
NEUGODNIH VREMENSKIH RAZMER
  ► NARAVNE NESREČE
  ► SUŠA/MOČA
  ► NAMAKANJE
  ► ŽLED (gozdarstvo)
KARTOGRAFSKI PRIKAZI
SPLETNE POVEZAVE
PROJEKTI IN PUBLIKACIJE

AGROMETEOROLOŠKA MREŽA: VREMENSKE POSTAJE IN FENOLOŠKA OPAZOVANJA

Pregled podatkov za lokacijo Selo, meteorološka postaja 37838

Pregled senzorjev na lokaciji

ID Ime Zadnja
vrednost
Datum
zadnje
spremembe
Tip
senzorja
4044 Omočenost lista (U) 0 U 12.12.2017 01:00 A730WET
4045 Padavine (mm) 0 mm 12.12.2017 01:00 Rain-O-Matic
4046 Temperatura 2 m (°C) 12,21 °C 12.12.2017 01:00 50YA
4047 Relativna vlaga 2 m (% RH) 61,93 % RH 12.12.2017 01:00 50YA

Pregled podatkov zadnjih 24 ur

Zap.
št.
Datum in čas Selo
Omočenost
lista
Padavine Relativna
vlaga
2
m
Temperatura
2
m
0 12.12.2017 01:00 0 0 62,23 12,16
1 12.12.2017 00:30 0 0 62,91 12
2 12.12.2017 00:00 0 0 64,47 11,59
3 11.12.2017 23:30 0 0 62,98 11,94
4 11.12.2017 23:00 0 0 64,18 11,61
5 11.12.2017 22:30 0 0 63,75 11,75
6 11.12.2017 22:00 0 0 64,15 11,76
7 11.12.2017 21:30 0 0 64,38 11,78
8 11.12.2017 21:00 0 0 64,42 11,83
9 11.12.2017 20:30 0 0 64,95 11,84
10 11.12.2017 20:00 0 0 64,4 12,03
11 11.12.2017 19:30 0 0 64,4 12,06
12 11.12.2017 19:00 0 0 65,05 11,95
13 11.12.2017 18:30 0 0 65,12 12,04
14 11.12.2017 18:00 0 0 66,65 11,79
15 11.12.2017 17:30 0 0 67,92 11,5
16 11.12.2017 17:00 0 0 69,04 11,18
17 11.12.2017 16:30 0 0 69,13 11,17
18 11.12.2017 16:00 0 0 70,55 10,87
19 11.12.2017 15:30 4 0,2 77,28 9,89
20 11.12.2017 15:00 10 0,8 75,46 9,99
21 11.12.2017 14:30 2 0 70,74 10,04
22 11.12.2017 14:00 10 0 72,89 9,3
23 11.12.2017 13:30 10 0 75,38 8,6
24 11.12.2017 13:00 4 0,2 77,56 7,91
25 11.12.2017 12:30 10 0 79,22 7,62
26 11.12.2017 12:00 10 0 71,99 8,74
27 11.12.2017 11:30 0 0 70,38 8,5
28 11.12.2017 11:00 0 0 71,06 7,88
29 11.12.2017 10:30 0 0 72,2 7,35
30 11.12.2017 10:00 0 0 72,72 7,03
31 11.12.2017 09:30 0 0 75,24 6,2
32 11.12.2017 09:00 0 0 76,61 5,45
33 11.12.2017 08:30 0 0 76,48 5,42
34 11.12.2017 08:00 0 0 78,27 4,37
35 11.12.2017 07:30 0 0 79,37 3,57
36 11.12.2017 07:00 0 0 78,66 3,59
37 11.12.2017 06:30 0 0 78,49 3,49
38 11.12.2017 06:00 0 0 78,39 3,05
39 11.12.2017 05:30 0 0 77,9 2,71
40 11.12.2017 05:00 0 0 77,56 2,74
41 11.12.2017 04:30 0 0 76,97 2,69
42 11.12.2017 04:00 0 0 76,61 2,44
43 11.12.2017 03:30 0 0 77,56 2,34
44 11.12.2017 03:00 0 0 77,78 2,25
45 11.12.2017 02:30 0 0 79,07 2,17
46 11.12.2017 02:00 0 0 80,88 2,17
47 11.12.2017 01:30 0 0 83,3 1,83
© 2011 Ministrstvo za kmetijstvo, gozdarstvo in prehrano. Vse pravice pridržane.